Flag for Russia Weather past 2 weeks in Astrakhan, Russia

Now
91 °F

Sunny.


Feels Like: 88 °F
Forecast: 62 / 93 °F
Wind: 1 mph from North

Location: Astrakhan

Current Time: Jul 23, 2014 at 4:43:59 PM

Latest Report: Jul 23, 2014 at 3:00 PM


Visibility: 10 mi

Pressure: 29.89 "Hg

Humidity: 20%

Dew point: 45 °F

Location of AstrakhanLocation

Historic Weather in Astrakhan — Graph

°F

Astrakhan temperature yesterday

Maximum temperature yesterday: 90 °F (at 4:00 PM)
Minimum temperature yesterday: 61 °F (at 3:30 AM)
Average temperature yesterday: 76 °F

Past Weeks' High & Low Weather Summary

 TemperatureHumidityPressure
High99 °F (Jul 17, 3:30 PM)94% (Jul 10, 5:30 AM)30.07 "Hg (Jul 10, 5:30 AM)
Low59 °F (Jul 14, 3:30 AM)12% (Jul 14, 9:30 AM)29.62 "Hg (Jul 9, 4:00 PM)
Average79 °F38%29.85 "Hg
* Reported Jul 8 3:00 PM — Jul 23 3:00 PM, Astrakhan, Weather by CustomWeather, © 2014

Note: Actual official high and low records may vary slightly from our data, if they occured in-between our weather recording intervals... More about our weather records

Advertising

Astrakhan weather history for previous 24 hours

 ConditionsComfort  
Time TempWeatherWind HumidityBarometerVisibility
3:00 PM
Jul 23
91 °FSunny.1 mph20%29.89 "Hg10 mi
2:30 PM91 °FSunny.6 mph20%29.89 "Hg10 mi
2:00 PM90 °FPassing clouds.6 mph21%29.89 "HgN/A
1:00 PM90 °FSunny.1 mph22%29.92 "Hg10 mi
9:30 AM82 °FPassing clouds.8 mph28%29.92 "HgN/A
9:00 AM81 °FPassing clouds.8 mph28%29.95 "HgN/A
8:30 AM79 °FSunny.8 mph42%29.92 "Hg10 mi
8:00 AM75 °FSunny.6 mph47%29.92 "Hg10 mi
7:30 AM75 °FSunny.6 mph41%29.92 "Hg10 mi
7:00 AM73 °FSunny.6 mph38%29.92 "Hg10 mi
6:30 AM72 °FSunny.3 mph38%29.92 "Hg10 mi
6:00 AM66 °FClear.No wind64%29.92 "Hg10 mi
5:30 AM66 °FClear.1 mph64%29.92 "Hg10 mi
5:00 AM68 °FClear.3 mph60%29.89 "Hg10 mi
4:30 AM66 °FClear.1 mph73%29.89 "Hg10 mi
4:00 AM68 °FClear.1 mph69%29.89 "Hg10 mi
3:00 AM68 °FClear.1 mph73%29.89 "Hg10 mi
8:30 PM
Jul 22
79 °FBroken clouds.10 mph39%29.86 "HgN/A
8:00 PM79 °FBroken clouds.10 mph34%29.86 "HgN/A
7:30 PM81 °FPartly sunny.10 mph34%29.83 "HgN/A
7:00 PM84 °FPartly sunny.13 mph29%29.83 "HgN/A
6:30 PM84 °FBroken clouds.15 mph27%29.83 "HgN/A
6:00 PM86 °FBroken clouds.17 mph24%29.80 "HgN/A
5:30 PM88 °FSunny.10 mph19%29.80 "Hg10 mi
5:00 PM90 °FSunny.10 mph18%29.80 "Hg10 mi
4:30 PM88 °FPassing clouds.8 mph19%29.80 "HgN/A
4:00 PM90 °FPassing clouds.8 mph20%29.80 "HgN/A
Weather by CustomWeather, © 2014

See weather overviewHow to use our weather pages